ALK25L VCBI-OMDB

Flight info

Callsign ALK25L
Flight time N/A
Altitude 40000
Route BASUR1D BASUR P570 ITURA M762 VAXAS/N0363F240 M762 MIVEK P574 IMPED
Aircraft A333/H-SDE3GHIJ2J3J5M1RVWXY/LB2D1

Departure

Time N/A
Airport Bandaranaike International Colombo Airport (VCBI)

Arrival

Time 2026-05-06 15:03
Airport Dubai International Airport (OMDB)
Time Latitude Longitude Altitude Speed Heading
2026-05-06 14:23 22.78172 58.53226 39848 ft 453 kts 326°
2026-05-06 14:23 22.80860 58.51447 39846 ft 453 kts 326°
2026-05-06 14:24 22.86237 58.47886 39850 ft 452 kts 326°
2026-05-06 14:24 22.91606 58.44327 39850 ft 452 kts 326°
2026-05-06 14:25 22.96967 58.40769 39849 ft 452 kts 326°
2026-05-06 14:25 23.02332 58.37206 39841 ft 452 kts 326°
2026-05-06 14:26 23.07691 58.33642 39849 ft 451 kts 326°
2026-05-06 14:26 23.13036 58.30081 39841 ft 450 kts 326°
2026-05-06 14:27 23.18373 58.26525 39836 ft 450 kts 326°
2026-05-06 14:27 23.23708 58.22967 39835 ft 450 kts 326°
2026-05-06 14:28 23.28141 58.20006 39827 ft 450 kts 326°
2026-05-06 14:28 23.33470 58.16443 39800 ft 450 kts 326°
2026-05-06 14:29 23.38631 58.12649 39810 ft 445 kts 316°
2026-05-06 14:29 23.42745 58.07684 39808 ft 441 kts 305°
2026-05-06 14:30 23.46369 58.02289 39826 ft 441 kts 303°
2026-05-06 14:30 23.49895 57.96822 39813 ft 441 kts 303°
2026-05-06 14:31 23.53427 57.91353 39824 ft 441 kts 303°
2026-05-06 14:31 23.56966 57.85913 39802 ft 440 kts 303°
2026-05-06 14:32 23.60573 57.80512 39821 ft 441 kts 305°
2026-05-06 14:32 23.64342 57.75239 39810 ft 441 kts 306°
2026-05-06 14:33 23.68144 57.69986 39814 ft 441 kts 306°
2026-05-06 14:33 23.71930 57.64721 39811 ft 441 kts 305°
2026-05-06 14:34 23.75699 57.59447 39810 ft 440 kts 305°
2026-05-06 14:34 23.79453 57.54180 39803 ft 440 kts 305°
2026-05-06 14:35 23.83206 57.48909 39806 ft 440 kts 305°
2026-05-06 14:35 23.85076 57.46283 39628 ft 435 kts 305°
2026-05-06 14:35 23.86917 57.43698 39326 ft 429 kts 305°
2026-05-06 14:36 23.88749 57.41122 38837 ft 430 kts 305°
2026-05-06 14:36 23.90579 57.38545 38351 ft 429 kts 305°
2026-05-06 14:36 23.92405 57.35973 37884 ft 428 kts 305°
2026-05-06 14:36 23.94227 57.33407 37419 ft 426 kts 305°
2026-05-06 14:37 23.96037 57.30856 36957 ft 424 kts 305°
2026-05-06 14:37 23.97841 57.28312 36496 ft 423 kts 305°
2026-05-06 14:37 23.99639 57.25776 36053 ft 421 kts 305°
2026-05-06 14:37 24.01431 57.23245 35582 ft 421 kts 305°
2026-05-06 14:38 24.03223 57.20714 35077 ft 420 kts 305°
2026-05-06 14:38 24.05013 57.18184 34551 ft 421 kts 305°
2026-05-06 14:38 24.06804 57.15652 33983 ft 422 kts 305°
2026-05-06 14:38 24.08605 57.13104 33314 ft 424 kts 305°
2026-05-06 14:39 24.10412 57.10546 32686 ft 425 kts 305°
2026-05-06 14:39 24.12221 57.07985 32050 ft 425 kts 305°
2026-05-06 14:39 24.14031 57.05422 31416 ft 426 kts 305°
2026-05-06 14:39 24.15814 57.02896 30964 ft 422 kts 305°
2026-05-06 14:40 24.17622 57.00334 30520 ft 418 kts 305°
2026-05-06 14:40 24.19396 56.97820 30070 ft 415 kts 305°
2026-05-06 14:40 24.21128 56.95362 29578 ft 412 kts 305°
2026-05-06 14:40 24.22868 56.92890 29090 ft 408 kts 305°
2026-05-06 14:41 24.24592 56.90440 28634 ft 404 kts 305°
2026-05-06 14:41 24.26297 56.88014 28172 ft 400 kts 306°
2026-05-06 14:41 24.27988 56.85607 27699 ft 397 kts 306°
2026-05-06 14:41 24.29662 56.83223 27250 ft 393 kts 306°
2026-05-06 14:42 24.31321 56.80858 26820 ft 390 kts 306°
2026-05-06 14:42 24.32971 56.78506 26367 ft 387 kts 306°
2026-05-06 14:42 24.34607 56.76172 25903 ft 386 kts 306°
2026-05-06 14:42 24.36239 56.73844 25458 ft 384 kts 306°
2026-05-06 14:43 24.37861 56.71529 24988 ft 382 kts 306°
2026-05-06 14:43 24.39475 56.69223 24556 ft 380 kts 306°
2026-05-06 14:43 24.41080 56.66930 24123 ft 378 kts 307°
2026-05-06 14:43 24.42681 56.64647 23677 ft 377 kts 308°
2026-05-06 14:44 24.44396 56.62473 23201 ft 376 kts 311°
2026-05-06 14:44 24.46144 56.60354 22738 ft 373 kts 312°
2026-05-06 14:44 24.47901 56.58276 22312 ft 370 kts 313°
2026-05-06 14:45 24.51423 56.54172 21470 ft 368 kts 313°
2026-05-06 14:45 24.53179 56.52131 21031 ft 366 kts 313°
2026-05-06 14:45 24.54920 56.50104 20627 ft 364 kts 313°
2026-05-06 14:45 24.56649 56.48085 20208 ft 362 kts 313°
2026-05-06 14:46 24.58369 56.46073 19799 ft 360 kts 313°
2026-05-06 14:46 24.60079 56.44069 19377 ft 359 kts 314°
2026-05-06 14:46 24.61785 56.42069 18990 ft 358 kts 314°
2026-05-06 14:46 24.63487 56.40073 18586 ft 357 kts 314°
2026-05-06 14:47 24.65183 56.38082 18158 ft 356 kts 314°
2026-05-06 14:47 24.66872 56.36100 17702 ft 354 kts 314°
2026-05-06 14:47 24.68553 56.34126 17266 ft 352 kts 314°
2026-05-06 14:47 24.70239 56.32188 16844 ft 349 kts 318°
2026-05-06 14:48 24.72174 56.30604 16420 ft 345 kts 332°
2026-05-06 14:48 24.74351 56.29521 15994 ft 343 kts 339°
2026-05-06 14:48 24.76602 56.28666 15581 ft 343 kts 343°
2026-05-06 14:48 24.78894 56.27941 15151 ft 342 kts 345°
2026-05-06 14:49 24.81195 56.27280 14717 ft 341 kts 346°
2026-05-06 14:49 24.83493 56.26640 14305 ft 340 kts 346°
2026-05-06 14:49 24.85726 56.25829 13904 ft 338 kts 334°
2026-05-06 14:49 24.87693 56.24443 13589 ft 334 kts 317°
2026-05-06 14:50 24.89153 56.22538 13476 ft 319 kts 303°
2026-05-06 14:50 24.90301 56.20506 13391 ft 306 kts 300°
2026-05-06 14:50 24.91344 56.18522 13310 ft 293 kts 299°
2026-05-06 14:50 24.92311 56.16588 13102 ft 285 kts 294°
2026-05-06 14:51 24.93099 56.14559 12485 ft 293 kts 290°
2026-05-06 14:51 24.93855 56.12430 11755 ft 304 kts 290°
2026-05-06 14:51 24.94618 56.10214 11159 ft 310 kts 290°
2026-05-06 14:51 24.95356 56.08044 10901 ft 294 kts 289°
2026-05-06 14:52 24.96053 56.05983 10656 ft 283 kts 289°
2026-05-06 14:52 24.96731 56.03969 10409 ft 278 kts 289°
2026-05-06 14:52 24.97408 56.01951 9867 ft 286 kts 288°
2026-05-06 14:52 24.98105 55.99867 9292 ft 293 kts 289°
2026-05-06 14:53 24.98811 55.97758 8870 ft 293 kts 288°
2026-05-06 14:53 24.99509 55.95676 8633 ft 285 kts 288°
2026-05-06 14:53 25.00184 55.93662 8487 ft 275 kts 288°
2026-05-06 14:53 25.00839 55.91706 8250 ft 269 kts 288°
2026-05-06 14:54 25.01480 55.89786 7829 ft 265 kts 288°
2026-05-06 14:54 25.02114 55.87882 7332 ft 264 kts 289°
2026-05-06 14:54 25.02748 55.85983 6852 ft 263 kts 290°
2026-05-06 14:54 25.03380 55.84089 6480 ft 264 kts 290°
2026-05-06 14:55 25.04014 55.82186 6133 ft 264 kts 290°
2026-05-06 14:55 25.04639 55.80310 5786 ft 264 kts 290°
2026-05-06 14:55 25.05147 55.78372 5439 ft 263 kts 285°
2026-05-06 14:55 25.05615 55.76422 5089 ft 262 kts 285°
2026-05-06 14:56 25.06113 55.74464 4774 ft 262 kts 287°
2026-05-06 14:56 25.06620 55.72539 4447 ft 261 kts 287°
2026-05-06 14:56 25.07117 55.70613 4096 ft 261 kts 288°
2026-05-06 14:56 25.07640 55.68704 3778 ft 259 kts 294°
2026-05-06 14:57 25.08438 55.66955 3577 ft 251 kts 301°
2026-05-06 14:57 25.09333 55.65344 3447 ft 242 kts 303°
2026-05-06 14:57 25.10212 55.63803 3322 ft 233 kts 302°
2026-05-06 14:57 25.11050 55.62291 3201 ft 230 kts 302°
2026-05-06 14:58 25.11864 55.60779 3077 ft 227 kts 301°
2026-05-06 14:58 25.12646 55.59302 2956 ft 220 kts 302°
2026-05-06 14:58 25.13409 55.57868 2843 ft 214 kts 302°
2026-05-06 14:58 25.14161 55.56479 2705 ft 207 kts 303°
2026-05-06 14:59 25.14898 55.55147 2641 ft 198 kts 303°
2026-05-06 14:59 25.15606 55.53882 2622 ft 192 kts 303°
2026-05-06 14:59 25.16315 55.52626 2581 ft 193 kts 303°
2026-05-06 14:59 25.17030 55.51361 2369 ft 202 kts 302°
2026-05-06 15:00 25.17757 55.50052 2105 ft 195 kts 302°
2026-05-06 15:00 25.18426 55.48830 1859 ft 181 kts 303°
2026-05-06 15:00 25.19046 55.47694 1598 ft 165 kts 304°
2026-05-06 15:00 25.19606 55.46658 1363 ft 150 kts 306°
2026-05-06 15:01 25.20121 55.45714 1205 ft 139 kts 307°
2026-05-06 15:01 25.20616 55.44832 1060 ft 132 kts 304°
2026-05-06 15:01 25.21095 55.43979 904 ft 131 kts 304°
2026-05-06 15:01 25.21555 55.43117 748 ft 130 kts 306°
2026-05-06 15:02 25.22031 55.42266 622 ft 132 kts 307°
2026-05-06 15:02 25.22514 55.41400 424 ft 131 kts 307°
2026-05-06 15:02 25.22995 55.40548 294 ft 134 kts 305°
2026-05-06 15:02 25.23490 55.39661 102 ft 133 kts 302°
2026-05-06 15:03 25.23961 55.38821 28 ft 113 kts 301°
2026-05-06 15:03 25.24265 55.38269 30 ft 56 kts 301°
2026-05-06 15:03 25.24412 55.38003 29 ft 37 kts 302°
2026-05-06 15:03 25.24544 55.37768 32 ft 35 kts 301°
2026-05-06 15:04 25.24664 55.37549 26 ft 30 kts 301°
2026-05-06 15:04 25.24755 55.37376 27 ft 24 kts 294°
2026-05-06 15:04 25.24783 55.37204 28 ft 23 kts 272°
2026-05-06 15:04 25.24788 55.37021 29 ft 20 kts 272°
2026-05-06 15:05 25.24820 55.36909 28 ft 16 kts 297°
2026-05-06 15:05 25.24862 55.36789 29 ft 18 kts 281°
2026-05-06 15:05 25.24900 55.36652 29 ft 20 kts 297°
2026-05-06 15:05 25.24974 55.36519 30 ft 22 kts 302°
2026-05-06 15:06 25.25055 55.36373 29 ft 23 kts 301°
2026-05-06 15:06 25.25140 55.36222 28 ft 23 kts 302°
2026-05-06 15:06 25.25230 55.36066 28 ft 24 kts 302°
2026-05-06 15:06 25.25312 55.35918 29 ft 21 kts 302°
2026-05-06 15:07 25.25388 55.35785 27 ft 18 kts 302°
2026-05-06 15:07 25.25458 55.35659 28 ft 20 kts 302°
2026-05-06 15:07 25.25536 55.35520 29 ft 22 kts 302°
2026-05-06 15:07 25.25621 55.35369 29 ft 24 kts 301°
2026-05-06 15:08 25.25713 55.35207 27 ft 26 kts 302°
2026-05-06 15:08 25.25802 55.35042 29 ft 24 kts 301°
2026-05-06 15:08 25.25894 55.34878 28 ft 26 kts 302°
2026-05-06 15:08 25.25981 55.34724 30 ft 21 kts 302°
2026-05-06 15:09 25.26052 55.34597 30 ft 16 kts 301°
2026-05-06 15:09 25.26092 55.34526 29 ft 11 kts 302°
2026-05-06 15:09 25.26137 55.34447 30 ft 13 kts 302°
2026-05-06 15:09 25.26187 55.34357 27 ft 10 kts 302°
2026-05-06 15:10 25.26200 55.34323 29 ft 3 kts 274°
2026-05-06 15:10 25.26189 55.34297 29 ft 3 kts 232°
2026-05-06 15:10 25.26163 55.34277 28 ft 6 kts 212°
2026-05-06 15:10 25.26118 55.34247 31 ft 9 kts 211°
2026-05-06 15:11 25.26066 55.34213 29 ft 0 kts 211°
2026-05-06 15:11 25.26063 55.34211 29 ft 0 kts 211°